When you browse on this site, cookies collect data to enhance your experience and personalize the content and advertising you see.
Visit our Privacy Policy to learn more. By continuing to use the site, you agree to this use of cookies and data.
  • In Belgien
  • Länderverzeichnis
  • Für 7 Tage
  • Wassertemperatur
  • Satellitenkarten
  • Wetterkarte
  • Widgets
  • user-avatar
    Anmelden

    Stündliche Wetter Vahnovo

    Heute, 16 Juni, Sonntag

    Zeit Temperatur Niederschläge Wind Luftdruck Luftfeuchtigkeit
    00:00 +17°C° 0 mm 3 m/S 743 mmHg 96%
    01:00 +17°C° 0 mm 3 m/S 743 mmHg 96%
    02:00 +17°C° 0 mm 2 m/S 743 mmHg 98%
    03:00 +17°C° 0 mm 2 m/S 742 mmHg 97%
    04:00 +17°C° 0 mm 3 m/S 742 mmHg 96%
    05:00 +18°C° 0 mm 3 m/S 742 mmHg 94%
    06:00 +18°C° 0.1 mm 3 m/S 742 mmHg 93%
    07:00 +18°C° 0.1 mm 3 m/S 743 mmHg 91%
    08:00 +19°C° 0 mm 3 m/S 743 mmHg 92%
    09:00 +19°C° 0.1 mm 2 m/S 743 mmHg 86%
    10:00 +20°C° 0.1 mm 2 m/S 743 mmHg 81%
    11:00 +21°C° 0.1 mm 2 m/S 743 mmHg 75%
    12:00 +23°C° 0.1 mm 2 m/S 743 mmHg 71%
    13:00 +24°C° 0.1 mm 1 m/S 743 mmHg 66%
    14:00 +24°C° 0.1 mm 1 m/S 743 mmHg 62%
    15:00 +24°C° 0.3 mm 1 m/S 743 mmHg 66%
    16:00 +24°C° 0.3 mm 2 m/S 743 mmHg 69%
    17:00 +24°C° 0.3 mm 2 m/S 743 mmHg 72%
    18:00 +21°C° 0 mm 2 m/S 743 mmHg 78%
    19:00 +20°C° 0 mm 2 m/S 743 mmHg 83%
    20:00 +18°C° 0 mm 2 m/S 744 mmHg 88%
    21:00 +18°C° 0 mm 1 m/S 744 mmHg 89%
    22:00 +18°C° 0 mm 1 m/S 744 mmHg 90%
    23:00 +16°C° 0 mm 1 m/S 744 mmHg 91%

    Morgen, 17 Juni, Montag

    Zeit Temperatur Niederschläge Wind Luftdruck Luftfeuchtigkeit
    00:00 +16°C° 0 mm 1 m/S 744 mmHg 92%
    01:00 +15°C° 0 mm 1 m/S 744 mmHg 93%
    02:00 +15°C° 0 mm 1 m/S 745 mmHg 93%
    03:00 +15°C° 0 mm 1 m/S 745 mmHg 93%
    04:00 +16°C° 0 mm 1 m/S 744 mmHg 92%
    05:00 +16°C° 0 mm 1 m/S 744 mmHg 91%
    06:00 +19°C° 0 mm 1 m/S 745 mmHg 85%
    07:00 +20°C° 0 mm 1 m/S 745 mmHg 80%
    08:00 +22°C° 0 mm 1 m/S 745 mmHg 74%
    09:00 +23°C° 0 mm 1 m/S 745 mmHg 69%
    10:00 +24°C° 0 mm 1 m/S 745 mmHg 63%
    11:00 +25°C° 0 mm 1 m/S 745 mmHg 58%
    12:00 +25°C° 0 mm 1 m/S 745 mmHg 57%
    13:00 +26°C° 0 mm 1 m/S 745 mmHg 56%
    14:00 +26°C° 0 mm 1 m/S 745 mmHg 56%
    15:00 +26°C° 0 mm 1 m/S 745 mmHg 59%
    16:00 +25°C° 0 mm 1 m/S 744 mmHg 62%
    17:00 +25°C° 0 mm 2 m/S 744 mmHg 65%
    18:00 +24°C° 0 mm 1 m/S 744 mmHg 70%
    19:00 +22°C° 0 mm 1 m/S 744 mmHg 75%
    20:00 +20°C° 0 mm 1 m/S 744 mmHg 80%
    21:00 +20°C° 0 mm 1 m/S 744 mmHg 81%
    22:00 +19°C° 0 mm 1 m/S 744 mmHg 82%
    23:00 +18°C° 0 mm 1 m/S 744 mmHg 83%

    übermorgen, 18 Juni, Dienstag

    Zeit Temperatur Niederschläge Wind Luftdruck Luftfeuchtigkeit
    00:00 +18°C° 0 mm 1 m/S 744 mmHg 85%
    01:00 +18°C° 0 mm 1 m/S 744 mmHg 86%
    02:00 +16°C° 0 mm 1 m/S 744 mmHg 88%
    03:00 +18°C° 0 mm 1 m/S 744 mmHg 87%
    04:00 +19°C° 0 mm 1 m/S 744 mmHg 86%
    05:00 +19°C° 0 mm 1 m/S 744 mmHg 86%
    06:00 +21°C° 0 mm 1 m/S 744 mmHg 82%
    07:00 +21°C° 0 mm 2 m/S 744 mmHg 78%
    08:00 +24°C° 0 mm 2 m/S 744 mmHg 73%
    09:00 +24°C° 0.2 mm 2 m/S 744 mmHg 71%
    10:00 +25°C° 0.2 mm 2 m/S 744 mmHg 68%
    11:00 +26°C° 0.2 mm 2 m/S 743 mmHg 66%
    12:00 +26°C° 0.5 mm 2 m/S 743 mmHg 69%
    13:00 +26°C° 0.5 mm 3 m/S 743 mmHg 71%
    14:00 +26°C° 0.5 mm 3 m/S 742 mmHg 74%
    15:00 +26°C° 0.5 mm 3 m/S 742 mmHg 76%
    16:00 +25°C° 0.5 mm 4 m/S 742 mmHg 79%
    17:00 +25°C° 0.5 mm 4 m/S 742 mmHg 82%
    18:00 +24°C° 0.1 mm 3 m/S 742 mmHg 86%
    19:00 +21°C° 0.1 mm 3 m/S 742 mmHg 90%
    20:00 +19°C° 0.1 mm 3 m/S 742 mmHg 94%
    21:00 +19°C° 0 mm 3 m/S 743 mmHg 94%
    22:00 +19°C° 0 mm 3 m/S 743 mmHg 94%
    23:00 +19°C° 0 mm 3 m/S 743 mmHg 94%

    19 Juni, Mittwoch

    Zeit Temperatur Niederschläge Wind Luftdruck Luftfeuchtigkeit
    00:00 +18°C° 0 mm 3 m/S 743 mmHg 95%
    01:00 +18°C° 0 mm 3 m/S 743 mmHg 95%
    02:00 +17°C° 0 mm 3 m/S 743 mmHg 95%
    03:00 +17°C° 0 mm 3 m/S 744 mmHg 94%
    04:00 +17°C° 0 mm 3 m/S 744 mmHg 92%
    05:00 +17°C° 0 mm 3 m/S 744 mmHg 90%
    06:00 +19°C° 0 mm 3 m/S 744 mmHg 85%
    07:00 +21°C° 0 mm 3 m/S 745 mmHg 80%
    08:00 +22°C° 0 mm 3 m/S 745 mmHg 75%
    09:00 +24°C° 0 mm 3 m/S 745 mmHg 69%
    10:00 +25°C° 0 mm 3 m/S 745 mmHg 63%
    11:00 +27°C° 0 mm 4 m/S 746 mmHg 56%
    12:00 +27°C° 0 mm 3 m/S 745 mmHg 56%
    13:00 +27°C° 0 mm 3 m/S 745 mmHg 56%
    14:00 +27°C° 0 mm 3 m/S 745 mmHg 56%
    15:00 +27°C° 0 mm 3 m/S 745 mmHg 60%
    16:00 +26°C° 0 mm 3 m/S 745 mmHg 64%
    17:00 +26°C° 0 mm 3 m/S 745 mmHg 69%
    18:00 +24°C° 0 mm 3 m/S 745 mmHg 73%
    19:00 +21°C° 0 mm 3 m/S 745 mmHg 77%
    20:00 +19°C° 0 mm 2 m/S 745 mmHg 81%
    21:00 +18°C° 0 mm 2 m/S 746 mmHg 82%
    22:00 +18°C° 0 mm 2 m/S 746 mmHg 82%
    23:00 +18°C° 0 mm 1 m/S 746 mmHg 83%

    20 Juni, Donnerstag

    Zeit Temperatur Niederschläge Wind Luftdruck Luftfeuchtigkeit
    00:00 +16°C° 0 mm 1 m/S 746 mmHg 85%
    01:00 +16°C° 0 mm 1 m/S 746 mmHg 87%
    02:00 +15°C° 0 mm 2 m/S 746 mmHg 89%
    03:00 +16°C° 0 mm 2 m/S 746 mmHg 88%
    04:00 +17°C° 0 mm 2 m/S 747 mmHg 87%
    05:00 +17°C° 0 mm 2 m/S 747 mmHg 87%
    06:00 +19°C° 0 mm 2 m/S 747 mmHg 81%
    07:00 +21°C° 0 mm 2 m/S 747 mmHg 75%
    08:00 +24°C° 0 mm 2 m/S 747 mmHg 69%
    09:00 +25°C° 0 mm 2 m/S 747 mmHg 64%
    10:00 +26°C° 0 mm 2 m/S 747 mmHg 60%
    11:00 +27°C° 0 mm 3 m/S 747 mmHg 55%
    12:00 +27°C° 0 mm 3 m/S 747 mmHg 54%
    13:00 +28°C° 0 mm 3 m/S 747 mmHg 52%
    14:00 +28°C° 0 mm 3 m/S 747 mmHg 51%
    15:00 +28°C° 0 mm 2 m/S 747 mmHg 55%
    16:00 +27°C° 0 mm 2 m/S 747 mmHg 60%
    17:00 +27°C° 0 mm 2 m/S 747 mmHg 64%
    18:00 +25°C° 0 mm 2 m/S 747 mmHg 68%
    19:00 +23°C° 0 mm 2 m/S 747 mmHg 71%
    20:00 +21°C° 0 mm 2 m/S 747 mmHg 75%
    21:00 +20°C° 0 mm 2 m/S 747 mmHg 78%
    22:00 +19°C° 0 mm 2 m/S 747 mmHg 81%
    23:00 +19°C° 0 mm 1 m/S 747 mmHg 84%

    21 Juni, Freitag

    Zeit Temperatur Niederschläge Wind Luftdruck Luftfeuchtigkeit
    00:00 +19°C° 0 mm 1 m/S 747 mmHg 85%
    01:00 +19°C° 0 mm 1 m/S 747 mmHg 86%
    02:00 +18°C° 0 mm 1 m/S 748 mmHg 87%
    03:00 +19°C° 0 mm 1 m/S 748 mmHg 86%
    04:00 +19°C° 0 mm 1 m/S 748 mmHg 86%
    05:00 +20°C° 0 mm 1 m/S 748 mmHg 85%
    06:00 +20°C° 0 mm 2 m/S 748 mmHg 79%
    07:00 +23°C° 0 mm 2 m/S 748 mmHg 74%
    08:00 +25°C° 0 mm 2 m/S 748 mmHg 68%
    09:00 +26°C° 0 mm 2 m/S 748 mmHg 63%
    10:00 +27°C° 0 mm 2 m/S 748 mmHg 59%
    11:00 +28°C° 0 mm 2 m/S 748 mmHg 54%
    12:00 +28°C° 0 mm 2 m/S 748 mmHg 53%
    13:00 +28°C° 0 mm 2 m/S 748 mmHg 52%
    14:00 +29°C° 0 mm 2 m/S 748 mmHg 51%
    15:00 +29°C° 0 mm 2 m/S 748 mmHg 54%
    16:00 +28°C° 0 mm 2 m/S 748 mmHg 57%
    17:00 +28°C° 0 mm 1 m/S 747 mmHg 60%
    18:00 +26°C° 0 mm 1 m/S 747 mmHg 63%
    19:00 +24°C° 0 mm 1 m/S 747 mmHg 66%
    20:00 +22°C° 0 mm 1 m/S 747 mmHg 69%
    21:00 +22°C° 0 mm 1 m/S 748 mmHg 71%
    22:00 +21°C° 0 mm 1 m/S 748 mmHg 73%
    23:00 +20°C° 0 mm 1 m/S 748 mmHg 74%
    Mehr zeigen